| time (UTC) | temp F | wind direction | speed knots | gust knots | rain 1hr in | rain 24hr in | rain mn in | humidity % | barometer mb |
| 20260510120006 | 47 | 348 | 1.7 | 6.1 | 0.00 | 0.54 | 0.01 | 84 | 1014.5 |
| 20260510114504 | 47 | 347 | 0.9 | 9.6 | 0.00 | 0.54 | 0.01 | 85 | 1013.9 |
| 20260510113005 | 47 | 348 | 1.7 | 7.8 | 0.00 | 0.54 | 0.01 | 84 | 1013.6 |
| 20260510111505 | 47 | 350 | 1.7 | 5.2 | 0.00 | 0.54 | 0.01 | 86 | 1013.3 |
| 20260510110006 | 47 | 339 | 0.9 | 4.3 | 0.00 | 0.54 | 0.01 | 88 | 1013.1 |
| 20260510104505 | 47 | 348 | 0.9 | 4.3 | 0.00 | 0.54 | 0.01 | 89 | 1012.6 |
| 20260510103005 | 47 | 345 | 0.9 | 3.5 | 0.00 | 0.54 | 0.01 | 88 | 1012.5 |
| 20260510101505 | 47 | 350 | 1.7 | 3.5 | 0.00 | 0.54 | 0.01 | 88 | 1012.3 |
| 20260510100006 | 47 | 350 | 0.9 | 4.3 | 0.00 | 0.54 | 0.01 | 87 | 1012.1 |
| 20260510094504 | 47 | 331 | 0.9 | 2.6 | 0.00 | 0.54 | 0.01 | 89 | 1012.0 |
| 20260510093005 | 47 | 338 | 0.9 | 2.6 | 0.00 | 0.54 | 0.01 | 90 | 1011.7 |
| 20260510091504 | 48 | 343 | 0.0 | 0.9 | 0.00 | 0.54 | 0.01 | 92 | 1011.2 |
| 20260510084505 | 49 | 343 | 0.0 | 0.9 | 0.00 | 0.54 | 0.01 | 90 | 1010.9 |
| 20260510083005 | 50 | 0 | 0.0 | 0.0 | 0.00 | 0.54 | 0.01 | 89 | 1010.9 |
| 20260510081504 | 50 | 343 | 0.0 | 1.7 | 0.00 | 0.54 | 0.01 | 87 | 1010.8 |
| 20260510080005 | 51 | 330 | 0.9 | 3.5 | 0.00 | 0.54 | 0.01 | 85 | 1010.4 |
| 20260510074505 | 51 | 342 | 0.9 | 4.3 | 0.00 | 0.54 | 0.01 | 87 | 1010.1 |
| 20260510073005 | 51 | 347 | 0.9 | 3.5 | 0.00 | 0.55 | 0.01 | 88 | 1009.8 |
| 20260510070005 | 52 | 349 | 1.7 | 8.7 | 0.00 | 0.59 | 0.01 | 88 | 1009.4 |
| 20260510064505 | 53 | 346 | 3.5 | 10.4 | 0.00 | 0.65 | 0.01 | 88 | 1009.3 |
| 20260510063006 | 54 | 337 | 0.9 | 2.6 | 0.00 | 0.68 | 0.01 | 92 | 1009.3 |
| 20260510061505 | 54 | 347 | 0.9 | 2.6 | 0.00 | 0.70 | 0.01 | 92 | 1009.1 |
| 20260510060005 | 54 | 336 | 0.0 | 1.7 | 0.00 | 0.75 | 0.01 | 93 | 1009.1 |
| 20260510054505 | 54 | 305 | 0.9 | 3.5 | 0.00 | 0.81 | 0.01 | 93 | 1009.2 |
| 20260510053005 | 54 | 321 | 0.9 | 3.5 | 0.00 | 0.83 | 0.01 | 93 | 1009.0 |
| 20260510051504 | 54 | 220 | 0.0 | 2.6 | 0.00 | 0.87 | 0.01 | 92 | 1008.1 |
| 20260510050005 | 54 | 197 | 0.9 | 3.5 | 0.01 | 0.89 | 0.01 | 91 | 1007.7 |
| 20260510044504 | 54 | 200 | 0.9 | 4.3 | 0.06 | 0.89 | 0.01 | 91 | 1007.5 |
| 20260510043005 | 54 | 199 | 1.7 | 7.0 | 0.07 | 0.89 | 0.01 | 90 | 1007.5 |
| 20260510034504 | 55 | 199 | 3.5 | 11.3 | 0.02 | 0.85 | 0.84 | 91 | 1007.5 |
| 20260510033005 | 54 | 204 | 1.7 | 6.1 | 0.04 | 0.87 | 0.83 | 92 | 1007.9 |
| 20260510030006 | 55 | 207 | 0.9 | 1.7 | 0.12 | 0.90 | 0.83 | 91 | 1007.3 |
| 20260510024504 | 55 | 264 | 4.3 | 11.3 | 0.11 | 0.90 | 0.82 | 91 | 1008.2 |
| 20260510023005 | 54 | 276 | 0.9 | 2.6 | 0.06 | 0.85 | 0.77 | 93 | 1008.1 |
| 20260510021504 | 54 | 270 | 0.0 | 1.7 | 0.00 | 0.79 | 0.71 | 92 | 1007.0 |
| 20260510020006 | 54 | 224 | 0.0 | 0.9 | 0.00 | 0.79 | 0.71 | 92 | 1007.0 |
| 20260510014505 | 54 | 223 | 0.0 | 0.9 | 0.00 | 0.79 | 0.71 | 91 | 1006.9 |
| 20260510010005 | 55 | 230 | 0.9 | 5.2 | 0.00 | 0.82 | 0.71 | 90 | 1006.6 |
| 20260510004504 | 55 | 228 | 0.9 | 3.5 | 0.01 | 0.83 | 0.71 | 91 | 1006.6 |
| 20260510001505 | 55 | 236 | 1.7 | 6.1 | 0.25 | 0.87 | 0.71 | 89 | 1006.4 |
| 20260510000005 | 55 | 249 | 1.7 | 8.7 | 0.34 | 0.89 | 0.71 | 89 | 1006.7 |
| 20260509234504 | 56 | 299 | 3.5 | 10.4 | 0.33 | 0.90 | 0.70 | 89 | 1006.5 |
| 20260509231504 | 62 | 330 | 5.2 | 16.5 | 0.04 | 0.69 | 0.41 | 72 | 1006.6 |
| 20260509230005 | 68 | 214 | 3.5 | 11.3 | 0.00 | 0.66 | 0.37 | 52 | 1004.2 |
| 20260509224505 | 68 | 192 | 4.3 | 13.0 | 0.00 | 0.71 | 0.37 | 51 | 1004.0 |
| 20260509223005 | 69 | 197 | 2.6 | 9.6 | 0.00 | 0.75 | 0.37 | 51 | 1004.1 |
| 20260509221504 | 70 | 220 | 4.3 | 13.9 | 0.00 | 0.79 | 0.37 | 49 | 1004.1 |
| 20260509220005 | 71 | 212 | 4.3 | 14.8 | 0.00 | 0.80 | 0.37 | 47 | 1004.1 |
| 20260509214504 | 71 | 184 | 4.3 | 14.8 | 0.00 | 0.80 | 0.37 | 47 | 1003.9 |
| 20260509213005 | 71 | 196 | 4.3 | 11.3 | 0.00 | 0.82 | 0.37 | 49 | 1003.9 |
| 20260509211504 | 71 | 201 | 3.5 | 12.2 | 0.00 | 0.83 | 0.37 | 48 | 1004.2 |
| 20260509210004 | 70 | 169 | 5.2 | 14.8 | 0.00 | 0.84 | 0.37 | 51 | 1004.4 |
| 20260509204504 | 70 | 217 | 4.3 | 13.0 | 0.00 | 0.84 | 0.37 | 51 | 1004.6 |
| 20260509203005 | 70 | 199 | 4.3 | 13.0 | 0.00 | 0.84 | 0.37 | 52 | 1004.6 |
| 20260509201504 | 70 | 217 | 5.2 | 12.2 | 0.00 | 0.84 | 0.37 | 51 | 1005.0 |
| 20260509200005 | 70 | 213 | 4.3 | 13.9 | 0.00 | 0.84 | 0.37 | 52 | 1005.0 |
| 20260509194504 | 70 | 210 | 4.3 | 13.0 | 0.00 | 0.84 | 0.37 | 52 | 1005.1 |
| 20260509193005 | 69 | 176 | 4.3 | 14.8 | 0.00 | 0.84 | 0.37 | 54 | 1005.5 |
| 20260509191504 | 68 | 179 | 4.3 | 10.4 | 0.00 | 0.84 | 0.37 | 56 | 1005.9 |
| 20260509190006 | 68 | 222 | 3.5 | 9.6 | 0.00 | 0.84 | 0.37 | 56 | 1006.0 |
| 20260509184504 | 68 | 210 | 3.5 | 10.4 | 0.00 | 0.84 | 0.37 | 56 | 1006.0 |
| 20260509183005 | 67 | 171 | 5.2 | 16.5 | 0.00 | 0.84 | 0.37 | 59 | 1005.9 |
| 20260509181505 | 68 | 207 | 3.5 | 12.2 | 0.00 | 0.84 | 0.37 | 57 | 1005.9 |
| 20260509180005 | 67 | 177 | 4.3 | 15.6 | 0.00 | 0.84 | 0.37 | 57 | 1006.1 |
| 20260509174504 | 67 | 167 | 4.3 | 13.0 | 0.00 | 0.84 | 0.37 | 58 | 1006.1 |
| 20260509173004 | 67 | 209 | 3.5 | 9.6 | 0.01 | 0.84 | 0.37 | 60 | 1006.2 |
| 20260509163005 | 65 | 187 | 3.5 | 9.6 | 0.00 | 0.83 | 0.36 | 63 | 1006.6 |
| 20260509161504 | 63 | 228 | 2.6 | 7.0 | 0.00 | 0.83 | 0.36 | 68 | 1006.8 |
| 20260509154503 | 61 | 218 | 2.6 | 7.8 | 0.00 | 0.83 | 0.36 | 77 | 1006.8 |
| 20260509151504 | 58 | 235 | 1.7 | 6.1 | 0.00 | 0.83 | 0.36 | 84 | 1006.6 |
| 20260509150005 | 58 | 236 | 2.6 | 7.0 | 0.00 | 0.83 | 0.36 | 86 | 1006.7 |
| 20260509144504 | 57 | 207 | 1.7 | 6.1 | 0.00 | 0.83 | 0.36 | 88 | 1006.8 |
| 20260509143004 | 56 | 203 | 0.9 | 5.2 | 0.00 | 0.83 | 0.36 | 90 | 1006.8 |
| 20260509141505 | 55 | 196 | 1.7 | 7.0 | 0.00 | 0.83 | 0.36 | 92 | 1006.8 |
| 20260509140006 | 55 | 206 | 1.7 | 4.3 | 0.00 | 0.83 | 0.36 | 93 | 1006.8 |
| 20260509133005 | 54 | 186 | 1.7 | 4.3 | 0.00 | 0.83 | 0.36 | 93 | 1006.8 |
| 20260509131504 | 54 | 186 | 1.7 | 5.2 | 0.00 | 0.83 | 0.36 | 94 | 1006.8 |
| 20260509130005 | 54 | 185 | 1.7 | 11.3 | 0.00 | 0.83 | 0.36 | 94 | 1006.9 |
| 20260509123005 | 53 | 200 | 0.9 | 5.2 | 0.00 | 0.83 | 0.36 | 94 | 1007.3 |
| 20260509121504 | 53 | 176 | 0.9 | 5.2 | 0.00 | 0.83 | 0.36 | 94 | 1007.2 |